Time,TemperatureF,DewpointF,PressureIn,WindDirection,WindDirectionDegrees,WindSpeedMPH,WindSpeedGustMPH,Humidity,HourlyPrecipIn,Conditions,Clouds,dailyrainin,SoftwareType,DateUTC
2013-06-30 00:14:00,62.2,61.0,29.67,SW,227,0.0,0.0,97,0.00,,,0.51,weatherlink.com 1.10,2013-06-30 04:14:00,
2013-06-30 00:29:00,61.8,61.0,29.67,SW,227,0.0,0.0,97,0.00,,,0.51,weatherlink.com 1.10,2013-06-30 04:29:00,
2013-06-30 00:44:00,61.2,60.0,29.67,SW,227,0.0,0.0,97,0.00,,,0.51,weatherlink.com 1.10,2013-06-30 04:44:00,
2013-06-30 00:58:00,60.7,60.0,29.68,SW,227,0.0,0.0,97,0.00,,,0.51,weatherlink.com 1.10,2013-06-30 04:58:00,
2013-06-30 01:13:00,60.5,60.0,29.68,SW,227,0.0,0.0,97,0.00,,,0.00,weatherlink.com 1.10,2013-06-30 05:13:00,
2013-06-30 01:28:00,60.1,59.0,29.69,SW,227,0.0,0.0,97,0.00,,,0.00,weatherlink.com 1.10,2013-06-30 05:28:00,
2013-06-30 01:43:00,59.5,59.0,29.69,SW,227,0.0,0.0,98,0.00,,,0.00,weatherlink.com 1.10,2013-06-30 05:43:00,
2013-06-30 01:58:00,59.1,59.0,29.69,SW,227,0.0,0.0,98,0.00,,,0.00,weatherlink.com 1.10,2013-06-30 05:58:00,
2013-06-30 02:13:00,58.9,58.0,29.69,SW,227,0.0,0.0,98,0.00,,,0.00,weatherlink.com 1.10,2013-06-30 06:13:00,
2013-06-30 02:28:00,58.4,58.0,29.70,SW,227,0.0,0.0,97,0.00,,,0.00,weatherlink.com 1.10,2013-06-30 06:28:00,
2013-06-30 02:43:00,58.0,58.0,29.70,SW,227,0.0,0.0,98,0.00,,,0.00,weatherlink.com 1.10,2013-06-30 06:43:00,
2013-06-30 02:58:00,58.1,58.0,29.70,SW,227,0.0,0.0,98,0.00,,,0.00,weatherlink.com 1.10,2013-06-30 06:58:00,
2013-06-30 03:13:00,57.8,57.0,29.70,SW,227,0.0,0.0,98,0.00,,,0.00,weatherlink.com 1.10,2013-06-30 07:13:00,
2013-06-30 03:28:00,57.5,57.0,29.70,SW,227,0.0,0.0,98,0.00,,,0.00,weatherlink.com 1.10,2013-06-30 07:28:00,
2013-06-30 03:44:00,57.5,57.0,29.70,SW,227,0.0,0.0,98,0.00,,,0.00,weatherlink.com 1.10,2013-06-30 07:44:00,
2013-06-30 03:59:00,57.4,57.0,29.70,SW,227,0.0,1.0,98,0.00,,,0.00,weatherlink.com 1.10,2013-06-30 07:59:00,
2013-06-30 04:14:00,57.5,57.0,29.71,SW,227,0.0,0.0,98,0.00,,,0.00,weatherlink.com 1.10,2013-06-30 08:14:00,
2013-06-30 04:29:00,57.9,57.0,29.71,SW,227,0.0,0.0,98,0.00,,,0.00,weatherlink.com 1.10,2013-06-30 08:29:00,
2013-06-30 04:44:00,57.8,57.0,29.72,SW,227,0.0,0.0,98,0.00,,,0.00,weatherlink.com 1.10,2013-06-30 08:44:00,
2013-06-30 04:59:00,57.5,57.0,29.72,SW,227,0.0,1.0,98,0.00,,,0.00,weatherlink.com 1.10,2013-06-30 08:59:00,
2013-06-30 05:14:00,57.0,57.0,29.73,SW,227,0.0,1.0,98,0.00,,,0.00,weatherlink.com 1.10,2013-06-30 09:14:00,
2013-06-30 05:29:00,57.1,57.0,29.73,SW,227,0.0,0.0,98,0.00,,,0.00,weatherlink.com 1.10,2013-06-30 09:29:00,
2013-06-30 05:44:00,57.3,57.0,29.73,SW,227,0.0,0.0,99,0.00,,,0.00,weatherlink.com 1.10,2013-06-30 09:44:00,
2013-06-30 05:59:00,58.0,58.0,29.74,SW,227,0.0,1.0,99,0.00,,,0.00,weatherlink.com 1.10,2013-06-30 09:59:00,
2013-06-30 06:14:00,58.3,58.0,29.74,SW,227,0.0,0.0,99,0.00,,,0.00,weatherlink.com 1.10,2013-06-30 10:14:00,
2013-06-30 06:29:00,58.5,58.0,29.75,SW,227,0.0,3.0,98,0.00,,,0.00,weatherlink.com 1.10,2013-06-30 10:29:00,
2013-06-30 06:44:00,58.9,59.0,29.75,SW,227,0.0,3.0,99,0.00,,,0.00,weatherlink.com 1.10,2013-06-30 10:44:00,
2013-06-30 06:59:00,60.0,60.0,29.75,East,96,0.0,5.0,99,0.00,,,0.00,weatherlink.com 1.10,2013-06-30 10:59:00,
2013-06-30 07:13:00,60.9,61.0,29.75,East,101,2.0,6.0,99,0.00,,,0.00,weatherlink.com 1.10,2013-06-30 11:13:00,
2013-06-30 07:29:00,61.7,62.0,29.76,East,101,0.0,5.0,99,0.00,,,0.00,weatherlink.com 1.10,2013-06-30 11:29:00,
2013-06-30 07:44:00,62.3,62.0,29.77,East,101,0.0,3.0,99,0.00,,,0.00,weatherlink.com 1.10,2013-06-30 11:44:00,
2013-06-30 07:59:00,62.5,62.0,29.77,ESE,112,0.0,3.0,99,0.00,,,0.00,weatherlink.com 1.10,2013-06-30 11:59:00,
2013-06-30 08:14:00,62.7,63.0,29.78,East,98,1.0,3.0,99,0.00,,,0.00,weatherlink.com 1.10,2013-06-30 12:14:00,
2013-06-30 08:29:00,63.6,63.0,29.78,East,98,0.0,1.0,99,0.00,,,0.00,weatherlink.com 1.10,2013-06-30 12:29:00,
2013-06-30 08:44:00,64.5,64.0,29.78,East,98,0.0,1.0,99,0.00,,,0.00,weatherlink.com 1.10,2013-06-30 12:44:00,
2013-06-30 08:59:00,66.0,66.0,29.79,East,97,2.0,3.0,99,0.00,,,0.00,weatherlink.com 1.10,2013-06-30 12:59:00,
2013-06-30 09:14:00,66.7,66.0,29.79,East,92,0.0,3.0,98,0.00,,,0.00,weatherlink.com 1.10,2013-06-30 13:14:00,
2013-06-30 09:29:00,68.8,68.0,29.79,East,92,0.0,3.0,98,0.00,,,0.00,weatherlink.com 1.10,2013-06-30 13:29:00,
2013-06-30 09:44:00,70.5,68.0,29.79,NE,42,2.0,6.0,93,0.00,,,0.00,weatherlink.com 1.10,2013-06-30 13:44:00,
2013-06-30 09:59:00,71.8,68.0,29.78,NE,51,0.0,5.0,88,0.00,,,0.00,weatherlink.com 1.10,2013-06-30 13:59:00,
2013-06-30 10:14:00,72.9,69.0,29.78,NE,51,1.0,6.0,87,0.00,,,0.00,weatherlink.com 1.10,2013-06-30 14:14:00,
2013-06-30 10:29:00,73.7,68.0,29.78,SE,142,1.0,6.0,82,0.00,,,0.00,weatherlink.com 1.10,2013-06-30 14:29:00,
2013-06-30 10:44:00,74.2,67.0,29.78,SSW,206,5.0,6.0,77,0.00,,,0.00,weatherlink.com 1.10,2013-06-30 14:44:00,
2013-06-30 10:59:00,74.7,67.0,29.78,SSE,153,1.0,7.0,78,0.00,,,0.00,weatherlink.com 1.10,2013-06-30 14:59:00,
2013-06-30 11:15:00,75.3,67.0,29.78,SSE,161,2.0,4.0,74,0.00,,,0.00,weatherlink.com 1.10,2013-06-30 15:15:00,
2013-06-30 11:30:00,76.1,69.0,29.78,WSW,243,1.0,4.0,78,0.00,,,0.00,weatherlink.com 1.10,2013-06-30 15:30:00,
2013-06-30 11:45:00,76.6,69.0,29.79,WSW,245,0.0,3.0,76,0.00,,,0.00,weatherlink.com 1.10,2013-06-30 15:45:00,
2013-06-30 12:00:00,76.4,69.0,29.79,SW,226,0.0,5.0,77,0.00,,,0.00,weatherlink.com 1.10,2013-06-30 16:00:00,
2013-06-30 12:15:00,76.7,70.0,29.79,WSW,242,0.0,6.0,79,0.00,,,0.00,weatherlink.com 1.10,2013-06-30 16:15:00,
2013-06-30 12:30:00,77.5,69.0,29.79,SSW,207,4.0,7.0,74,0.00,,,0.00,weatherlink.com 1.10,2013-06-30 16:30:00,
2013-06-30 12:45:00,77.8,70.0,29.79,NNE,25,0.0,6.0,76,0.00,,,0.00,weatherlink.com 1.10,2013-06-30 16:45:00,
2013-06-30 13:00:00,77.5,69.0,29.79,NNE,28,0.0,1.0,75,0.00,,,0.00,weatherlink.com 1.10,2013-06-30 17:00:00,
2013-06-30 13:15:00,78.6,69.0,29.78,NE,40,0.0,6.0,72,0.00,,,0.00,weatherlink.com 1.10,2013-06-30 17:15:00,
2013-06-30 13:30:00,79.6,69.0,29.78,North,360,2.0,5.0,71,0.00,,,0.00,weatherlink.com 1.10,2013-06-30 17:30:00,
2013-06-30 13:45:00,80.6,70.0,29.78,NNE,31,1.0,3.0,71,0.00,,,0.00,weatherlink.com 1.10,2013-06-30 17:45:00,
2013-06-30 14:00:00,80.7,72.0,29.78,North,355,0.0,5.0,75,0.00,,,0.00,weatherlink.com 1.10,2013-06-30 18:00:00,
2013-06-30 14:15:00,80.8,68.0,29.78,NNE,22,0.0,4.0,65,0.00,,,0.00,weatherlink.com 1.10,2013-06-30 18:15:00,
2013-06-30 14:30:00,81.2,70.0,29.78,NNE,29,0.0,6.0,69,0.00,,,0.00,weatherlink.com 1.10,2013-06-30 18:30:00,
2013-06-30 14:45:00,81.9,70.0,29.78,WNW,300,0.0,1.0,67,0.00,,,0.00,weatherlink.com 1.10,2013-06-30 18:45:00,
2013-06-30 15:01:00,82.6,71.0,29.78,NNW,342,0.0,3.0,67,0.00,,,0.00,weatherlink.com 1.10,2013-06-30 19:01:00,
2013-06-30 15:16:00,82.1,69.0,29.77,NNE,32,5.0,7.0,64,0.00,,,0.00,weatherlink.com 1.10,2013-06-30 19:16:00,
2013-06-30 15:31:00,81.9,69.0,29.77,NE,34,0.0,3.0,64,0.00,,,0.00,weatherlink.com 1.10,2013-06-30 19:31:00,
2013-06-30 15:46:00,82.3,67.0,29.77,West,277,0.0,3.0,61,0.00,,,0.00,weatherlink.com 1.10,2013-06-30 19:46:00,
2013-06-30 16:01:00,82.4,68.0,29.78,West,277,0.0,1.0,62,0.00,,,0.00,weatherlink.com 1.10,2013-06-30 20:01:00,
2013-06-30 16:16:00,83.1,68.0,29.77,NE,50,1.0,5.0,61,0.00,,,0.00,weatherlink.com 1.10,2013-06-30 20:16:00,
2013-06-30 16:30:00,83.6,68.0,29.77,NE,38,2.0,3.0,60,0.00,,,0.00,weatherlink.com 1.10,2013-06-30 20:30:00,
2013-06-30 16:45:00,83.2,69.0,29.77,NNW,340,0.0,2.0,62,0.00,,,0.00,weatherlink.com 1.10,2013-06-30 20:45:00,
2013-06-30 17:00:00,83.2,70.0,29.77,SE,126,0.0,2.0,65,0.00,,,0.00,weatherlink.com 1.10,2013-06-30 21:00:00,
2013-06-30 17:15:00,84.2,68.0,29.77,East,98,0.0,3.0,59,0.00,,,0.00,weatherlink.com 1.10,2013-06-30 21:15:00,
2013-06-30 17:30:00,82.8,68.0,29.77,East,98,0.0,1.0,62,0.00,,,0.00,weatherlink.com 1.10,2013-06-30 21:30:00,
2013-06-30 17:45:00,83.7,68.0,29.78,ENE,68,0.0,3.0,60,0.00,,,0.00,weatherlink.com 1.10,2013-06-30 21:45:00,
2013-06-30 18:00:00,83.9,67.0,29.78,ENE,69,0.0,2.0,58,0.00,,,0.00,weatherlink.com 1.10,2013-06-30 22:00:00,
2013-06-30 18:15:00,83.8,67.0,29.79,NNE,32,0.0,4.0,58,0.00,,,0.00,weatherlink.com 1.10,2013-06-30 22:15:00,
2013-06-30 18:30:00,83.0,69.0,29.79,NE,41,0.0,0.0,62,0.00,,,0.00,weatherlink.com 1.10,2013-06-30 22:30:00,
2013-06-30 18:45:00,81.0,68.0,29.79,NE,41,0.0,0.0,64,0.00,,,0.00,weatherlink.com 1.10,2013-06-30 22:45:00,
2013-06-30 19:00:00,79.3,69.0,29.79,NE,41,0.0,0.0,71,0.00,,,0.00,weatherlink.com 1.10,2013-06-30 23:00:00,
2013-06-30 19:15:00,78.5,70.0,29.80,NE,41,0.0,0.0,76,0.00,,,0.00,weatherlink.com 1.10,2013-06-30 23:15:00,
2013-06-30 19:30:00,78.5,71.0,29.81,NW,306,0.0,0.0,77,0.00,,,0.00,weatherlink.com 1.10,2013-06-30 23:30:00,
2013-06-30 19:45:00,78.3,70.0,29.81,ESE,110,0.0,0.0,76,0.00,,,0.00,weatherlink.com 1.10,2013-06-30 23:45:00,
2013-06-30 20:01:00,77.2,70.0,29.82,ESE,110,0.0,0.0,77,0.00,,,0.00,weatherlink.com 1.10,2013-07-01 00:01:00,
2013-06-30 20:16:00,76.2,69.0,29.82,South,190,6.0,8.0,79,0.00,,,0.00,weatherlink.com 1.10,2013-07-01 00:16:00,
2013-06-30 20:31:00,74.0,67.0,29.84,South,178,3.0,8.0,78,0.00,,,0.00,weatherlink.com 1.10,2013-07-01 00:31:00,
2013-06-30 20:46:00,72.7,67.0,29.84,South,190,4.0,15.0,83,0.00,,,0.00,weatherlink.com 1.10,2013-07-01 00:46:00,
2013-06-30 21:01:00,71.8,67.0,29.84,South,171,2.0,7.0,85,0.00,,,0.00,weatherlink.com 1.10,2013-07-01 01:01:00,
2013-06-30 21:16:00,71.4,67.0,29.85,ESE,123,0.0,2.0,86,0.00,,,0.00,weatherlink.com 1.10,2013-07-01 01:16:00,
2013-06-30 21:31:00,71.0,67.0,29.86,East,80,0.0,1.0,87,0.00,,,0.00,weatherlink.com 1.10,2013-07-01 01:31:00,
2013-06-30 21:46:00,70.7,67.0,29.87,East,80,0.0,1.0,88,0.00,,,0.00,weatherlink.com 1.10,2013-07-01 01:46:00,
2013-06-30 22:01:00,70.4,67.0,29.87,ENE,76,0.0,2.0,88,0.00,,,0.00,weatherlink.com 1.10,2013-07-01 02:01:00,
2013-06-30 22:16:00,69.5,67.0,29.87,SSE,160,0.0,4.0,91,0.04,,,0.04,weatherlink.com 1.10,2013-07-01 02:16:00,
2013-06-30 22:31:00,68.6,67.0,29.87,SE,138,1.0,3.0,93,0.09,,,0.09,weatherlink.com 1.10,2013-07-01 02:31:00,
2013-06-30 22:46:00,68.1,67.0,29.87,SE,138,0.0,1.0,95,0.10,,,0.10,weatherlink.com 1.10,2013-07-01 02:46:00,
2013-06-30 23:01:00,67.8,66.0,29.86,SE,138,0.0,1.0,95,0.10,,,0.10,weatherlink.com 1.10,2013-07-01 03:01:00,
2013-06-30 23:16:00,67.6,67.0,29.87,SE,138,0.0,0.0,96,0.06,,,0.10,weatherlink.com 1.10,2013-07-01 03:16:00,
2013-06-30 23:31:00,67.5,66.0,29.88,SE,138,0.0,2.0,96,0.00,,,0.10,weatherlink.com 1.10,2013-07-01 03:31:00,
2013-06-30 23:46:00,67.4,66.0,29.88,SE,138,0.0,0.0,96,0.00,,,0.10,weatherlink.com 1.10,2013-07-01 03:46:00,